Lid_Strength_Index
0 1 1 0 0 0 -0 -0 0 0 0 -0 0 0 -0 -0 -0 0 -0 -0 -1 -1 -1 -1 -1 -1 3 5 6 4 -1 -2 2 2 2 3 4 5 7 8 8 9 10 11 10 10 10
-0 1 1 1 1 0 0 0 0 1 1 1 -0 0 1 0 0 0 0 -0 -0 -1 -1 -1 -1 -0 5 7 5 3 3 3 3 3 4 3 4 4 7 9 9 10 10 11 10 10 10
-0 0 1 1 1 1 1 0 0 1 1 1 1 0 0 1 0 0 -0 -0 -0 -0 -0 -1 -1 3 6 6 4 3 4 4 4 3 5 5 4 5 7 10 10 10 11 11 10 10 11
-0 0 0 1 1 1 1 1 1 1 1 1 1 1 1 0 1 1 0 -0 0 0 -0 -1 1 5 7 5 4 4 4 4 4 4 5 5 5 7 8 9 10 11 10 11 11 10 12
-0 0 0 1 1 1 1 1 1 1 1 1 1 1 1 1 1 1 1 1 -0 -0 -1 0 5 6 8 3 6 5 4 5 5 4 5 5 6 8 9 9 10 10 11 11 11 10 12
1 1 1 1 1 1 1 1 1 1 1 1 1 1 1 1 1 1 1 1 -0 1 3 5 6 7 7 7 6 6 5 5 6 6 6 6 7 8 8 10 12 12 12 12 11 11 12
2 2 2 2 2 2 1 1 1 1 1 1 1 1 2 2 1 2 2 3 5 5 5 7 7 8 7 6 6 6 6 6 6 6 8 8 8 9 10 11 12 12 12 12 11 11 12
3 3 3 3 3 2 2 1 1 1 2 2 1 2 2 2 2 3 3 4 6 5 7 7 7 7 7 6 8 7 6 7 7 9 8 9 10 11 11 12 12 12 13 12 12 12 12
4 3 3 3 3 2 2 2 1 2 2 2 2 2 2 2 3 4 4 5 3 4 7 8 7 7 7 7 8 8 7 8 8 9 9 10 11 11 12 13 13 13 13 13 14 13 12
4 4 4 4 4 3 3 2 1 2 2 2 2 2 2 3 4 5 5 4 3 4 9 10 9 8 7 7 9 7 7 8 9 10 10 10 11 12 12 13 13 13 13 14 14 13 13
5 5 5 5 4 4 4 3 2 2 2 3 3 3 3 4 5 5 5 4 3 5 14 10 9 6 7 8 8 9 7 7 10 11 10 11 12 12 12 13 13 14 13 13 13 13 13
7 7 6 4 5 5 5 4 3 3 2 3 3 3 3 4 5 6 5 4 5 10 14 11 9 10 9 9 9 8 8 8 9 10 10 12 11 12 12 13 14 12 13 13 13 13 13
7 7 6 5 6 6 6 5 4 4 3 3 3 4 4 5 6 5 5 5 11 13 10 11 11 10 10 10 10 10 10 10 11 12 12 12 12 12 13 13 13 13 13 13 14 14 14
7 7 7 6 6 7 6 6 5 5 4 4 4 5 5 5 4 5 5 9 14 12 11 10 10 10 11 10 10 10 11 11 11 11 11 12 13 13 13 13 14 14 14 14 17 15 14
7 7 7 7 7 7 7 6 6 5 5 5 6 3 6 6 6 5 7 12 11 11 10 10 11 11 11 11 11 11 11 11 11 10 11 12 13 13 14 14 13 14 14 14 15 16 15
7 7 7 7 7 7 7 7 6 6 6 6 5 6 6 7 6 6 9 11 11 10 9 10 11 10 11 11 11 11 11 11 11 11 11 11 13 14 14 13 14 14 14 14 14 16 16
7 6 7 7 7 8 8 7 7 6 6 6 6 7 7 7 6 8 11 10 10 9 9 10 10 11 10 10 10 11 11 11 11 12 11 11 12 14 13 14 13 15 14 15 14 15 15
6 6 7 7 8 8 8 8 7 7 7 7 7 9 7 7 10 10 11 10 10 9 9 9 9 9 10 10 10 11 11 10 10 10 12 11 12 13 14 14 14 14 14 13 13 15 15
6 7 7 7 8 8 9 8 8 7 7 7 8 8 7 7 12 12 11 11 10 10 9 10 10 9 9 10 10 10 11 11 11 11 11 11 12 14 14 14 14 14 14 14 15 14 15
6 6 7 7 8 8 8 9 9 8 7 7 9 10 9 9 10 11 12 11 11 9 9 9 10 9 10 10 10 10 10 11 11 11 10 10 12 12 13 13 12 14 15 14 13 14 13
6 6 6 7 8 8 8 9 9 8 7 8 9 10 10 11 11 11 11 11 11 11 9 9 10 10 9 10 11 11 10 11 12 9 11 11 12 13 12 13 13 13 13 15 15 13 14
6 7 7 7 8 8 8 8 9 9 7 7 9 10 11 11 12 11 12 11 11 11 10 10 10 9 9 10 9 10 10 10 9 11 11 12 12 14 13 13 14 15 13 13 14 13 14
6 6 7 7 8 8 7 8 8 8 7 7 8 9 9 12 12 12 11 10 11 9 9 9 9 9 10 9 8 9 8 9 9 9 11 11 12 14 13 14 14 15 13 12 13 13 12
5 6 6 7 7 8 7 7 8 8 7 7 6 8 9 11 12 12 12 11 11 10 10 10 10 9 10 10 10 9 10 11 11 12 10 11 12 12 13 13 16 11 12 11 12 11 12
5 5 6 6 7 7 7 7 8 8 7 7 7 8 10 11 11 11 12 11 12 11 10 10 11 11 10 10 10 12 12 12 13 13 12 11 11 13 13 14 12 10 14 13 12 11 10
4 5 5 6 6 6 6 7 8 8 8 8 7 6 8 10 11 10 11 10 11 11 11 12 12 11 10 10 10 13 13 11 14 15 12 12 11 10 14 15 16 11 12 12 11 12 10
4 5 5 5 6 6 7 7 7 8 7 8 8 6 7 10 8 10 10 10 9 10 9 12 12 12 11 10 11 12 12 11 13 14 15 14 13 13 13 13 12 10 12 12 13 11 10
4 5 5 5 5 6 7 7 7 8 7 8 9 7 8 9 8 9 9 10 11 10 10 12 12 12 11 12 11 11 12 11 12 11 13 13 13 13 13 14 14 12 13 12 8 9 10
4 5 5 5 5 6 6 7 7 7 8 8 10 7 8 9 9 8 8 9 10 9 8 12 10 11 9 10 11 10 12 12 11 12 13 13 10 11 10 10 9 10 10 10 11 10 9